Location: Newark
(44.3681°N, 100.3364°W)
Time: 05:32:46
(UTC+00:00)

Vanguard 1 - Pass Details

Date: 22 February 2020
Orbit: 649 x 3833 km, 34.2° (Epoch: 07 April)

Event Time Altitude Azimuth Distance (km) Brightness Sun altitude
Rises 17:13:23 0° 259° (W) 7,690 14.5 30.8°
Reaches altitude 10° 17:19:12 10° 256° (WSW) 6,356 14.1 31.3°
Maximum altitude 17:36:51 55° 186° (S) 2,614 13.5 32.6°
Drops below altitude 10° 17:46:37 10° 112° (ESE) 3,688 13.7 33.3°
Sets 17:49:04 0° 107° (ESE) 4,367 13.8 33.4°
